TimeEST,TemperatureF,Dew PointF,Humidity,Sea Level PressureIn,VisibilityMPH,Wind Direction,Wind SpeedMPH,Gust SpeedMPH,PrecipitationIn,Events,Conditions,WindDirDegrees,DateUTC
12:15 AM,24.8,21.2,86,29.77,8.0,WSW,11.5,-,N/A,,Overcast,250,2014-01-18 05:15:00
12:35 AM,24.8,21.2,86,29.77,2.5,WSW,13.8,-,N/A,,Overcast,240,2014-01-18 05:35:00
12:55 AM,24.8,19.4,80,29.77,9.0,WSW,15.0,-,N/A,,Overcast,250,2014-01-18 05:55:00
1:15 AM,24.8,21.2,86,29.77,7.0,West,10.4,-,N/A,,Overcast,270,2014-01-18 06:15:00
1:35 AM,24.8,19.4,80,29.77,7.0,West,11.5,-,N/A,,Overcast,270,2014-01-18 06:35:00
1:55 AM,24.8,19.4,80,29.78,5.0,West,15.0,18.4,N/A,,Overcast,270,2014-01-18 06:55:00
2:15 AM,21.2,19.4,93,29.79,1.5,SW,15.0,21.9,N/A,,Overcast,230,2014-01-18 07:15:00
2:35 AM,21.2,17.6,86,29.79,2.5,WSW,13.8,17.3,N/A,,Overcast,250,2014-01-18 07:35:00
2:55 AM,19.4,15.8,86,29.79,8.0,WSW,11.5,-,N/A,,Overcast,240,2014-01-18 07:55:00
3:15 AM,19.4,15.8,86,29.79,5.0,West,11.5,-,N/A,,Overcast,260,2014-01-18 08:15:00
3:35 AM,19.4,15.8,86,29.79,2.0,WSW,9.2,-,N/A,,Overcast,250,2014-01-18 08:35:00
3:55 AM,17.6,12.2,79,29.79,5.0,WSW,11.5,-,N/A,,Overcast,250,2014-01-18 08:55:00
4:15 AM,17.6,10.4,73,29.79,7.0,SW,13.8,19.6,N/A,,Overcast,220,2014-01-18 09:15:00
4:35 AM,15.8,8.6,73,29.79,10.0,WSW,18.4,-,N/A,,Overcast,240,2014-01-18 09:35:00
4:55 AM,15.8,5.0,62,29.79,10.0,WSW,15.0,18.4,N/A,,Overcast,240,2014-01-18 09:55:00
5:15 AM,14.0,6.8,73,29.79,10.0,WSW,13.8,-,N/A,,Overcast,240,2014-01-18 10:15:00
5:35 AM,14.0,6.8,73,29.80,10.0,WSW,12.7,-,N/A,,Overcast,250,2014-01-18 10:35:00
5:55 AM,12.2,3.2,67,29.80,10.0,WSW,16.1,-,N/A,,Overcast,240,2014-01-18 10:55:00
6:15 AM,12.2,3.2,67,29.80,10.0,SW,15.0,18.4,N/A,,Overcast,230,2014-01-18 11:15:00
6:35 AM,10.4,1.4,67,29.81,10.0,WSW,16.1,19.6,N/A,,Scattered Clouds,240,2014-01-18 11:35:00
6:55 AM,10.4,1.4,67,29.81,10.0,WSW,17.3,-,N/A,,Clear,240,2014-01-18 11:55:00
7:15 AM,8.6,1.4,73,29.82,10.0,SW,15.0,21.9,N/A,,Mostly Cloudy,230,2014-01-18 12:15:00
7:35 AM,8.6,1.4,73,29.82,10.0,SW,11.5,16.1,N/A,,Overcast,220,2014-01-18 12:35:00
7:55 AM,8.6,1.4,73,29.82,7.0,WSW,13.8,-,N/A,,Overcast,240,2014-01-18 12:55:00
8:15 AM,8.6,1.4,73,29.83,3.0,SW,10.4,16.1,N/A,,Overcast,230,2014-01-18 13:15:00
8:35 AM,8.6,1.4,73,29.83,3.0,SW,10.4,-,N/A,,Overcast,220,2014-01-18 13:35:00
8:55 AM,8.6,3.2,79,29.83,3.0,SW,8.1,-,N/A,,Overcast,230,2014-01-18 13:55:00
9:15 AM,8.6,3.2,79,29.83,2.5,SW,9.2,-,N/A,,Overcast,230,2014-01-18 14:15:00
9:35 AM,10.4,5.0,79,29.84,2.0,SSW,8.1,-,N/A,,Overcast,210,2014-01-18 14:35:00
9:55 AM,10.4,3.2,73,29.84,2.5,SW,10.4,-,N/A,,Overcast,230,2014-01-18 14:55:00
10:15 AM,10.4,3.2,73,29.85,2.0,SW,10.4,-,N/A,,Overcast,220,2014-01-18 15:15:00
10:35 AM,10.4,6.8,85,29.85,2.0,SW,8.1,-,N/A,,Overcast,230,2014-01-18 15:35:00
10:55 AM,10.4,5.0,79,29.85,2.0,WSW,13.8,-,N/A,,Overcast,240,2014-01-18 15:55:00
11:15 AM,12.2,5.0,73,29.85,2.5,WSW,13.8,-,N/A,,Overcast,240,2014-01-18 16:15:00
11:35 AM,12.2,6.8,79,29.85,2.5,SW,9.2,-,N/A,,Overcast,220,2014-01-18 16:35:00
11:55 AM,12.2,5.0,73,29.84,4.0,SW,9.2,-,N/A,,Overcast,230,2014-01-18 16:55:00
12:15 PM,12.2,6.8,79,29.84,9.0,WSW,10.4,-,N/A,,Overcast,240,2014-01-18 17:15:00
12:35 PM,12.2,6.8,79,29.83,10.0,SW,10.4,16.1,N/A,,Overcast,230,2014-01-18 17:35:00
12:55 PM,12.2,6.8,79,29.83,10.0,WSW,11.5,-,N/A,,Overcast,250,2014-01-18 17:55:00
1:15 PM,14.0,6.8,73,29.82,10.0,West,9.2,-,N/A,,Overcast,280,2014-01-18 18:15:00
1:35 PM,14.0,6.8,73,29.83,10.0,West,9.2,-,N/A,,Overcast,280,2014-01-18 18:35:00
1:55 PM,14.0,6.8,73,29.82,10.0,West,10.4,-,N/A,,Overcast,260,2014-01-18 18:55:00
2:15 PM,14.0,6.8,73,29.82,7.0,WSW,12.7,-,N/A,,Overcast,240,2014-01-18 19:15:00
2:35 PM,14.0,6.8,73,29.83,5.0,West,10.4,-,N/A,,Overcast,260,2014-01-18 19:35:00
2:55 PM,15.8,6.8,68,29.83,6.0,WSW,10.4,-,N/A,,Overcast,240,2014-01-18 19:55:00
3:15 PM,15.8,6.8,68,29.83,7.0,WSW,8.1,-,N/A,,Overcast,240,2014-01-18 20:15:00
3:35 PM,15.8,6.8,68,29.84,10.0,WSW,8.1,-,N/A,,Overcast,240,2014-01-18 20:35:00
3:55 PM,15.8,6.8,68,29.84,10.0,SW,9.2,-,N/A,,Overcast,230,2014-01-18 20:55:00
4:15 PM,15.8,6.8,68,29.83,10.0,WSW,8.1,-,N/A,,Overcast,240,2014-01-18 21:15:00
4:35 PM,15.8,6.8,68,29.84,10.0,SW,8.1,-,N/A,,Overcast,230,2014-01-18 21:35:00
4:55 PM,14.0,6.8,73,29.84,10.0,WSW,10.4,-,N/A,,Overcast,250,2014-01-18 21:55:00
5:15 PM,14.0,6.8,73,29.84,10.0,WSW,8.1,-,N/A,,Overcast,250,2014-01-18 22:15:00
5:35 PM,14.0,6.8,73,29.84,10.0,WSW,6.9,-,N/A,,Overcast,240,2014-01-18 22:35:00
5:55 PM,14.0,6.8,73,29.84,10.0,SW,4.6,-,N/A,,Overcast,230,2014-01-18 22:55:00
6:15 PM,14.0,6.8,73,29.84,10.0,WSW,4.6,-,N/A,,Overcast,240,2014-01-18 23:15:00
6:35 PM,14.0,6.8,73,29.84,10.0,SW,4.6,-,N/A,,Overcast,220,2014-01-18 23:35:00
6:55 PM,14.0,5.0,67,29.84,10.0,SSW,6.9,-,N/A,,Overcast,210,2014-01-18 23:55:00
7:15 PM,12.2,5.0,73,29.83,10.0,SSW,5.8,-,N/A,,Mostly Cloudy,200,2014-01-19 00:15:00
7:35 PM,12.2,3.2,67,29.82,10.0,SSW,5.8,-,N/A,,Clear,210,2014-01-19 00:35:00
7:55 PM,10.4,6.8,85,29.82,10.0,SSW,4.6,-,N/A,,Clear,200,2014-01-19 00:55:00
8:15 PM,10.4,3.2,73,29.83,10.0,SSW,5.8,-,N/A,,Mostly Cloudy,200,2014-01-19 01:15:00
8:35 PM,12.2,6.8,79,29.83,10.0,SSW,5.8,-,N/A,,Overcast,210,2014-01-19 01:35:00
8:55 PM,12.2,5.0,73,29.83,10.0,SSW,5.8,-,N/A,,Overcast,210,2014-01-19 01:55:00
9:15 PM,12.2,5.0,73,29.82,10.0,SSW,5.8,-,N/A,,Overcast,210,2014-01-19 02:15:00
9:35 PM,10.4,5.0,79,29.81,10.0,SSW,6.9,-,N/A,,Scattered Clouds,200,2014-01-19 02:35:00
9:55 PM,10.4,3.2,73,29.81,10.0,SSW,6.9,-,N/A,,Clear,200,2014-01-19 02:55:00
10:15 PM,10.4,3.2,73,29.81,10.0,South,6.9,-,N/A,,Clear,190,2014-01-19 03:15:00
10:35 PM,10.4,5.0,79,29.80,10.0,South,9.2,-,N/A,,Partly Cloudy,190,2014-01-19 03:35:00
10:55 PM,10.4,6.8,85,29.78,10.0,South,8.1,-,N/A,,Mostly Cloudy,190,2014-01-19 03:55:00
11:15 PM,10.4,6.8,85,29.77,10.0,South,6.9,-,N/A,,Overcast,190,2014-01-19 04:15:00
11:35 PM,10.4,6.8,85,29.77,10.0,South,6.9,-,N/A,,Overcast,180,2014-01-19 04:35:00
11:55 PM,10.4,5.0,79,29.76,10.0,South,8.1,-,N/A,,Overcast,190,2014-01-19 04:55:00